Regional Weather Roundup
Issued by NWS Upton, NY

Current Version | Previous Version | Graphics & Text | Print | Product List | Glossary Off
Versions: 1 2 3 4 5 6 7 8 9 10 11 12 13 14 15 16 17 18 19 20 21 22 23 24 25 26 27

000
ASUS41 KOKX 041208
RWROKX

REGIONAL WEATHER ROUNDUP
NATIONAL WEATHER SERVICE NEW YORK NY
700 AM EST SUN DEC 04 2016

NOTE: "FAIR" INDICATES FEW OR NO CLOUDS BELOW 12,000 FEET WITH NO
SIGNIFICANT WEATHER AND/OR OBSTRUCTIONS TO VISIBILITY.

NYZ071-072-176-178-NJZ106-104-041300-
NEW YORK CITY METRO AREA

CITY           SKY/WX    TMP DP  RH WIND       PRES   REMARKS
Central Park   PTCLDY    39  21  48 NW12G17   30.24R WCI  32
Wall St Helipt CLOUDY    41  25  53 VRB3      30.23R
Bronx Bot Gard NOT AVBL
LaGuardia APRT PTCLDY    41  25  53 NW13G22   30.22R
Kennedy INTL   PTCLDY    40  22  48 NW10      30.22R WCI  33
Breezy Point     N/A     39 N/A N/A NW13        N/A  WCI  32
Newark/Liberty PTCLDY    39  22  50 NW9       30.22R WCI  33
Teterboro      PTCLDY    39  22  50 NW7       30.22R WCI  34
$$

NYZ177-179-078>081-041300-
LONG ISLAND NEW YORK

CITY           SKY/WX    TMP DP  RH WIND       PRES   REMARKS
Jones Beach      N/A     39 N/A N/A NW14        N/A  WCI  31
Matinecock PT  NOT AVBL
Farmingdale    CLEAR     32  26  78 CALM      30.21R
MacArthur/ISP  PTCLDY    28  23  81 CALM      30.20R
Shirley        CLEAR     31  22  69 N3        30.21R
Westhampton    CLEAR     35  20  54 N13       30.21R WCI  26
Southampton    NOT AVBL
Bridgehampton  NOT AVBL
East Hampton     N/A     34  19  54 NW6       30.18R WCI  29
Montauk          N/A     37  22  54 NW10      30.18S WCI  30
$$

NYZ052-065-067-041300-
HUDSON VALLEY

CITY           SKY/WX    TMP DP  RH WIND       PRES   REMARKS
White Plains   PTCLDY    31  24  75 CALM      30.18R
Newburgh       PTCLDY    30  25  80 NW7       30.20R WCI  23
Montgomery     PTCLDY    30  20  66 SW3       30.20R
Poughkeepsie   CLOUDY    26  23  88 CALM      30.21R
Albany         MOCLDY    30  20  66 NW6       30.22R WCI  24
$$

NJZ001-105-106-008-010-013-015-019>022-104-041300-
NEW JERSEY

CITY           SKY/WX    TMP DP  RH WIND       PRES   REMARKS
Newark/Liberty PTCLDY    39  22  50 NW9       30.22R WCI  33
Teterboro      PTCLDY    39  22  50 NW7       30.22R WCI  34
Caldwell       CLEAR     36  22  56 CALM      30.22R
Somerville     PTCLDY    39  24  55 NW5       30.21R
Linden           N/A     37  22  54 CALM      30.24R
Sussex         MOCLDY    35  23  61 N8        30.20R WCI  29
Andover          N/A     34  23  64 VRB3      30.21R
Trenton        CLOUDY    40  23  50 NW5       30.23R
Millville      CLOUDY    32  28  85 CALM      30.25R
Atlantic City  CLEAR     33  25  72 NW7       30.24R WCI  27
Wrightstown    NOT AVBL
Toms River     CLOUDY    35  26  69 NW8       30.24R WCI  29
Belmar         NOT AVBL
$$

PAZ047>061-062-071-041300-
EASTERN PENNSYLVANIA

CITY           SKY/WX    TMP DP  RH WIND       PRES   REMARKS
Philadelphia   CLOUDY    41  25  53 NW3       30.25R
Allentown      CLOUDY    40  25  55 W3        30.23R
Scranton       CLOUDY    36  27  69 NW8       30.21R WCI  30
$$

CTZ002-004>006-009-010-012-RIZ004-006-007-MAZ004-011-015-041300-
SOUTHERN NEW ENGLAND
 IN CT

CITY           SKY/WX    TMP DP  RH WIND       PRES   REMARKS
Bradley INTL   PTCLDY    29  17  61 NW8       30.18R WCI  21
Hartford       PTCLDY    34  19  54 NW8       30.19R WCI  27
Danbury        PTCLDY    27  20  75 CALM      30.20R
Wtrbury/Oxford PTCLDY    30  18  59 N10       30.17R WCI  21
Bridgeport     CLEAR     34  22  61 CALM      30.20R
Meriden        PTCLDY    29  21  72 CALM      30.19R
New Haven      CLEAR     34  19  54 NW6       30.19R WCI  29
Chester          N/A     32  18  55 NW6       30.16R WCI  26
Groton         CLEAR     34  19  54 NW6       30.17S WCI  29
Wilimantic     CLOUDY    33  21  61 W3        30.17S

 IN RI

CITY           SKY/WX    TMP DP  RH WIND       PRES   REMARKS
Providence     MOCLDY    33  19  56 NW6       30.16S WCI  28
Block Island   CLOUDY    36  22  56 NW12      30.17R WCI  28
Westerly       CLOUDY    31  18  58 W3        30.17S
 IN MA

CITY           SKY/WX    TMP DP  RH WIND       PRES   REMARKS
Boston         MOCLDY    34  20  56 NW9       30.15S WCI  27
Worcester      PTCLDY    29  17  61 NW10      30.11S WCI  20
Westfield      PTCLDY    26  20  77 CALM      30.17R
Provincetown   CLOUDY    37  24  59 NW17G23   30.13R WCI  27
Nantucket      CLEAR     36  24  62 NW17G24   30.12R WCI  26
$$

ANZ330-335-338-340-345-350-353-355-041300-
COASTAL MARINE OBSERVATIONS


STATION/POSITION TIME  SKY/WX   TEMP    WIND        PRES    VSBY  WAVE
                                AIR SEA DIR/SP/G                  HT/PER
                 (UTC)          (F)     (DEG/KT/KT) (MB)    (MI)  (FT/S)
NY HARB ENTRANCE 1050            43 53  330/ 17/ 21 1022.1          3/ 4
20 S FIRE ISLAND 1050            42 53  350/ 16/ 19 1021.7          3/ 5
GREAT SOUTH BAY  1130            37 43                N/A
23 SSW MONTAUK P 1150            39 55  320/ 17/ 23 1021.8          3/ 4
15 E BARNEGAT LI 1130               54                N/A           4/ 5
HUDSON CANYON    1050            46 58              1021.3          6/ 6
KINGS POINT      1136            40 47              1022.7
EXECUTION ROCKS  1145            40     310/ 12/ 14   N/A
CENTRAL LI SOUND 1145            38 51  330/ 16/ 19   N/A           2/ 3
EASTERN LI SOUND NOT AVBL
ROBBINS REEF     1136            40     340/ 11/ 14 1023.5
$$


>>>>>>>>>>>>>>>>>>>>>>>>>>>> KEY <<<<<<<<<<<<<<<<<<<<<<<<<<<
>                                                          <
>     SKY/WX - Sky Condition/Present Weather               <
>     TMP    - Temperature in Fahrenheit                   <
>     DP     - Dew Point in Fahrenheit                     <
>     RH     - Relative Humidity in Percent                <
>     WIND   - Direction (from) and Speed in MPH           <
>     PRES   - Mean Sea Level Pressure (inches of Hg)      <
>     WCI    - Wind Chill Index                            <
>     VSB    - VISIBILITY IN MILES                         <
>     HX     - HEAT INDEX                                  <
>     TC     - TEMPERATURE IN CELSIUS                      <
>     VRB    - VARIABLE WIND DIRECTION                     <
>                                                          <
>>>>>>>>>>>>>>>>>>>>>>>>>>>> KEY <<<<<<<<<<<<<<<<<<<<<<<<<<<




USA.gov is the U.S. government's official web portal to all federal, state and local government web resources and services.